Powrót do katalogu

ARIANE 5 R/B

AktywnyHEO
NORAD 39218·ROCKET BODY·🇫🇷 France

Wystrzelony Jul 25, 2013 z Guiana Space Centre

Loading…

Następne Przeloty (najbliższe 24 godziny)

TLE

ŚwieżeSource: Space-Track

Epoka: Sep 14, 2026, 18:40 UTC

1 39218U 13038D   26257.77838812  .00026296  00000-0  11806-2 0  9997
2 39218   3.0405 142.2497 6512881   8.9281 358.6669  3.35117299128199

Śledź ARIANE 5 R/B w czasie rzeczywistym z AllMySat

Download on the App Store